[[{"header":{"parameterUnit":"m.s-1","parameterCategory":1,"la1":30.2991,"la2":30.254,"lo1":-89.0895,"lo2":-89.0444,"dy":0.0017,"dx":0.0017,"nx":28,"ny":28,"refTime":"2025-07-21T21:00:00:Z","depth":0,"parameterNumber":2,"parameterNumberName":"U-component_of_WINDS"},"data":[0,0,0,0,0,0,0,0,0,0,0,0,0,0,0,0,0,0,0,0,0,0,0,0,0,0,0,0,0,0,0,0,0,0,0,0,0,0,0,0,0,0,0,0,0,0,0,0,0,0,0,0,0,0,0,0,0,0,2.2036,2.2037,0,2.2151,2.2153,2.2154,2.2173,2.2172,2.2171,2.217,2.2292,2.2296,2.2301,0,0,0,0,0,0,0,0,0,0,0,0,0,2.1837,2.1841,2.2036,2.2038,2.2039,2.2151,2.2153,2.2154,2.2173,2.2172,2.217,2.2169,2.2291,2.2296,2.2301,0,0,0,0,0,0,0,0,0,0,0,0,0,2.1935,2.1842,2.2036,2.2062,2.2065,2.2151,2.2153,2.2155,2.2173,2.2172,2.217,2.2169,2.2289,2.2295,2.2302,2.2371,0,0,2.2321,2.2324,0,0,0,0,0,0,0,0,2.1929,2.1942,2.2057,2.206,2.2064,2.2146,2.2127,2.2227,2.2174,2.2132,2.217,2.2168,2.2245,2.2255,2.228,2.2377,2.2382,2.2321,2.2325,2.2328,2.233,0,0,0,0,0,0,0,2.1923,2.1938,2.2082,2.2058,2.2063,2.2069,2.2081,2.2146,2.2196,2.2136,2.2137,2.2151,2.2247,2.2274,2.2283,2.2384,2.2321,2.2327,2.2331,2.2333,2.2543,2.2545,0,0,0,0,0,0,2.1911,2.1932,2.2078,2.2085,2.1992,2.2074,2.2088,2.2121,2.2195,2.2205,2.2152,2.2151,2.2264,2.2276,2.2287,2.2373,2.2328,2.2334,2.2337,2.2541,2.2543,2.2545,0,0,0,0,0,0,2.1906,2.1923,2.2074,2.2009,2.2029,2.2079,2.2117,2.2124,2.2151,2.2207,2.2217,2.217,2.2263,2.2279,2.235,2.2377,2.2337,2.2342,2.2539,2.2542,2.2544,2.2544,0,0,0,0,0,0,2.19,2.1922,2.1947,2.2009,2.2032,2.2132,2.2118,2.2128,2.2161,2.2162,2.2227,2.2236,2.2263,2.234,2.2356,2.2385,2.2347,2.2537,2.254,2.2543,2.2542,2.2547,2.2551,0,0,0,0,0,2.1893,2.1944,2.1949,2.1966,2.2065,2.2134,2.2147,2.2176,2.2164,2.2191,2.2227,2.2234,2.2372,2.2347,2.2365,2.2397,2.2535,2.2539,2.2543,2.254,2.2546,2.2551,0,0,0,0,0,0,2.1886,2.1953,2.1958,2.203,2.2076,2.2137,2.2171,2.2181,2.2232,2.223,2.2265,2.228,2.2349,2.238,2.2352,2.2468,2.2453,2.2461,2.2444,2.245,2.2455,2.2445,2.2353,0,0,0,0,0,2.1892,2.1941,2.1998,2.2056,2.2078,2.2121,2.2152,2.217,2.222,2.2239,2.2281,2.233,2.2384,2.2419,2.2472,2.2547,2.2562,2.2578,2.2582,2.2586,2.2592,2.2634,2.2641,2.2558,2.2558,2.2558,0,0,2.1906,2.1949,2.1978,2.2055,2.2093,2.2144,2.2137,2.2192,2.223,2.2248,2.2317,2.2349,2.2406,2.2479,2.2514,2.2508,2.2618,2.2591,2.2593,2.2597,2.2638,2.2646,2.2653,2.2561,2.2561,2.256,0,0,2.1958,2.1995,2.2047,2.2085,2.2141,2.2169,2.2182,2.2241,2.2263,2.2332,2.2347,2.2394,2.2487,2.2527,2.2559,2.2626,2.2635,2.2643,2.2665,2.2706,2.2712,2.2718,2.2742,2.275,2.2649,2.2649,2.2649,0,2.1969,2.2045,2.2073,2.2127,2.2161,2.2178,2.2232,2.2268,2.2339,2.2363,2.2355,2.2471,2.2511,2.2593,2.2609,2.2635,2.2651,2.2635,2.2709,2.2715,2.2721,2.2744,2.2753,2.265,2.265,2.265,2.265,0,2.2055,2.2108,2.2144,2.221,2.2249,2.2302,2.234,2.2375,2.2391,2.242,2.2491,2.2539,2.2602,2.2623,2.2639,2.2708,2.2702,2.2701,2.2687,2.2729,2.2751,2.276,2.265,2.265,2.265,2.265,0,0,2.2104,2.2186,2.2199,2.2229,2.2293,2.2335,2.239,2.245,2.248,2.2529,2.2576,2.2654,2.2653,2.269,2.2711,2.2746,2.2796,2.2741,2.2743,2.2749,2.2875,2.2874,2.2884,2.2802,2.2804,2.2806,2.287,0,2.2163,2.2259,2.2287,2.2369,2.2418,2.2436,2.2484,2.2529,2.2558,2.2605,2.2638,2.2692,2.2687,2.271,2.2746,2.2782,2.2822,2.2778,2.2847,2.2849,2.2831,2.2896,2.2896,2.2954,2.2878,2.288,2.2881,0,2.2244,2.2293,2.2379,2.2436,2.2458,2.2501,2.2558,2.2603,2.2654,2.2673,2.2714,2.2732,2.2791,2.2773,2.2856,2.2825,2.2856,2.2878,2.2881,2.2888,2.2867,2.2904,2.2973,2.2981,2.2895,2.2894,2.2893,0,2.227,2.2358,2.2421,2.2447,2.2515,2.2545,2.2575,2.2625,2.2659,2.271,2.2733,2.2791,2.2822,2.2867,2.29,2.2884,2.298,2.2965,2.2997,2.2996,2.3016,2.3014,2.309,2.3037,2.3036,2.3036,2.3036,0,2.2333,2.2385,2.2434,2.2472,2.2531,2.2564,2.2622,2.2653,2.2697,2.2743,2.2763,2.2806,2.2847,2.2896,2.2923,2.2987,2.3001,2.3018,2.3025,2.3016,2.3014,2.3036,2.3032,2.3039,2.3038,2.3038,2.3037,0,2.2372,2.2407,2.2476,2.2535,2.2551,2.2592,2.2643,2.2682,2.2712,2.277,2.2785,2.2833,2.2891,2.2929,2.3004,2.3022,2.3091,2.3097,2.3073,2.3076,2.3106,2.3102,2.3198,2.3212,2.315,2.315,2.3151,0,2.2408,2.2448,2.2512,2.2543,2.2573,2.2624,2.2658,2.2692,2.2728,2.279,2.2821,2.2881,2.293,2.3022,2.3064,2.3122,2.3129,2.3158,2.3137,2.3127,2.3128,2.3125,2.3129,2.3161,2.3162,2.3162,2.3163,0,2.247,2.2485,2.2534,2.2589,2.2629,2.2675,2.272,2.2745,2.2787,2.2826,2.2885,2.2923,2.2999,2.3058,2.3119,2.3152,2.3164,2.3169,2.3179,2.3171,2.3155,2.3163,2.3081,2.3166,2.3166,2.3166,2.3166,2.3165,2.2508,2.2545,2.2594,2.2648,2.2686,2.2728,2.2767,2.2801,2.2851,2.2914,2.2931,2.2993,2.3045,2.3128,2.3162,2.3211,2.3208,2.3223,2.3227,2.323,2.3229,2.3147,2.3223,2.3223,2.3223,2.3223,2.3223,0,2.257,2.2603,2.2652,2.2714,2.2757,2.2764,2.2815,2.285,2.2904,2.295,2.2998,2.3066,2.3123,2.3169,2.3228,2.3259,2.3266,2.3273,2.3271,2.3278,2.323,2.3214,2.3266,2.3266,2.3266,2.3266,2.3266,2.3266,2.2607,2.2669,2.269,2.2771,2.2804,2.2864,2.2892,2.2931,2.2968,2.3043,2.309,2.3119,2.3166,2.3228,2.3281,2.3294,2.3314,2.332,2.3333,2.3287,2.3282,2.3277,2.3263,2.3324,2.3325,2.3378,2.3379,2.3379]},{"header":{"parameterUnit":"m.s-1","parameterCategory":1,"la1":30.2991,"la2":30.254,"lo1":-89.0895,"lo2":-89.0444,"dy":0.0017,"dx":0.0017,"nx":28,"ny":28,"refTime":"2025-07-21T21:00:00:Z","depth":0,"parameterNumber":3,"parameterNumberName":"V-component_of_WINDS"},"data":[0,0,0,0,0,0,0,0,0,0,0,0,0,0,0,0,0,0,0,0,0,0,0,0,0,0,0,0,0,0,0,0,0,0,0,0,0,0,0,0,0,0,0,0,0,0,0,0,0,0,0,0,0,0,0,0,0,0,3.9113,3.9113,0,3.9153,3.9153,3.9154,3.9169,3.9169,3.9169,3.9168,3.9206,3.9207,3.9208,0,0,0,0,0,0,0,0,0,0,0,0,0,3.9042,3.9044,3.9113,3.9113,3.9114,3.9153,3.9153,3.9154,3.9169,3.9169,3.9168,3.9168,3.9206,3.9207,3.9208,0,0,0,0,0,0,0,0,0,0,0,0,0,3.9077,3.9044,3.9112,3.9126,3.9127,3.9153,3.9153,3.9154,3.9169,3.9169,3.9168,3.9168,3.9205,3.9207,3.9209,3.9222,0,0,3.9214,3.9214,0,0,0,0,0,0,0,0,3.9075,3.9079,3.9123,3.9125,3.9127,3.9156,3.9142,3.9177,3.9169,3.9153,3.9168,3.9168,3.9189,3.9192,3.92,3.9224,3.9226,3.9214,3.9215,3.9215,3.9216,0,0,0,0,0,0,0,3.9072,3.9078,3.9128,3.9124,3.9126,3.9128,3.9132,3.9149,3.9171,3.9154,3.9156,3.916,3.919,3.9198,3.9201,3.9226,3.9214,3.9215,3.9216,3.9217,3.9259,3.9259,0,0,0,0,0,0,3.9068,3.9075,3.9127,3.913,3.91,3.9129,3.9134,3.9147,3.9171,3.9175,3.916,3.9161,3.9196,3.9199,3.9202,3.9218,3.9215,3.9217,3.9218,3.9259,3.9259,3.9259,0,0,0,0,0,0,3.9067,3.9073,3.9126,3.9103,3.911,3.9131,3.9144,3.9147,3.9156,3.9176,3.918,3.9165,3.9196,3.92,3.9216,3.9219,3.9218,3.9219,3.9259,3.9259,3.9259,3.925,0,0,0,0,0,0,3.9065,3.9072,3.908,3.9103,3.9111,3.9141,3.9144,3.9148,3.9159,3.916,3.9181,3.9185,3.9196,3.9214,3.9218,3.9221,3.9221,3.9259,3.9259,3.9259,3.925,3.925,3.9249,0,0,0,0,0,3.9062,3.9076,3.908,3.9086,3.9121,3.9141,3.9145,3.9159,3.9159,3.9165,3.9177,3.9184,3.9218,3.9216,3.922,3.9224,3.9258,3.9259,3.9259,3.925,3.925,3.9249,0,0,0,0,0,0,3.9052,3.9079,3.9084,3.9106,3.9121,3.9144,3.9152,3.9159,3.9174,3.9174,3.9189,3.9193,3.9208,3.9218,3.9214,3.9237,3.9238,3.924,3.923,3.923,3.9229,3.9226,3.9222,0,0,0,0,0,3.9052,3.9068,3.909,3.9107,3.9114,3.9132,3.9141,3.915,3.9166,3.9172,3.9186,3.92,3.9213,3.9222,3.9236,3.9251,3.9254,3.9256,3.9255,3.9255,3.9256,3.9261,3.9261,3.926,3.926,3.926,0,0,3.9053,3.907,3.9079,3.9105,3.9118,3.9132,3.9137,3.9153,3.9162,3.9174,3.9191,3.92,3.9217,3.9232,3.9239,3.924,3.9256,3.9255,3.9255,3.9256,3.9261,3.9261,3.9261,3.926,3.926,3.926,0,0,3.9061,3.9077,3.9091,3.9103,3.9122,3.9133,3.9136,3.9156,3.9164,3.918,3.9188,3.9199,3.9223,3.9233,3.9241,3.9248,3.9254,3.9252,3.9251,3.9256,3.9256,3.9256,3.9256,3.9257,3.9253,3.9253,3.9253,0,3.906,3.9083,3.9097,3.9111,3.912,3.9132,3.9144,3.9155,3.9177,3.9182,3.9184,3.9211,3.9224,3.9239,3.9241,3.9248,3.925,3.925,3.9255,3.9255,3.9255,3.9256,3.9256,3.9253,3.9253,3.9253,3.9253,0,3.9078,3.9093,3.9102,3.9122,3.9133,3.9146,3.916,3.9169,3.9175,3.9185,3.9199,3.9214,3.9229,3.9233,3.924,3.9249,3.9249,3.9252,3.9255,3.9255,3.9255,3.9256,3.9252,3.9252,3.9252,3.9252,0,0,3.9083,3.9109,3.9112,3.912,3.914,3.9151,3.9162,3.9178,3.9183,3.9197,3.9206,3.9224,3.9226,3.9235,3.9243,3.9248,3.9249,3.925,3.9251,3.9248,3.9256,3.9253,3.9253,3.9253,3.9253,3.9253,3.9254,0,3.9092,3.9116,3.9127,3.9144,3.9156,3.9165,3.9175,3.9186,3.9195,3.9205,3.9214,3.9225,3.9229,3.9234,3.9239,3.9248,3.9251,3.9248,3.9259,3.9259,3.9254,3.9254,3.9251,3.9252,3.9255,3.9255,3.9255,0,3.9108,3.912,3.9139,3.9154,3.9159,3.9168,3.9181,3.9191,3.9203,3.9209,3.9217,3.9224,3.9234,3.9235,3.9247,3.9245,3.925,3.9255,3.9255,3.9256,3.9257,3.9254,3.9253,3.9253,3.9256,3.9256,3.9256,0,3.9107,3.9129,3.9142,3.9148,3.9167,3.9172,3.918,3.9192,3.9199,3.921,3.9214,3.9225,3.9231,3.9239,3.9247,3.9248,3.9258,3.926,3.9261,3.9261,3.9263,3.9263,3.9262,3.9267,3.9267,3.9267,3.9267,0,3.9116,3.9126,3.9141,3.9149,3.9159,3.9171,3.918,3.9188,3.9198,3.9206,3.9214,3.9221,3.9232,3.924,3.9247,3.9254,3.9257,3.926,3.9262,3.9259,3.9259,3.9262,3.9262,3.9267,3.9267,3.9267,3.9267,0,3.9117,3.9128,3.9142,3.9157,3.9161,3.9168,3.918,3.9187,3.9194,3.9204,3.9206,3.9218,3.9227,3.9236,3.9249,3.9253,3.926,3.9263,3.9256,3.9257,3.9256,3.9256,3.9257,3.9257,3.9263,3.9263,3.9263,0,3.9122,3.9129,3.9145,3.915,3.9158,3.9167,3.9174,3.9184,3.919,3.9203,3.9207,3.9217,3.9225,3.9238,3.9247,3.9255,3.9258,3.9257,3.9259,3.9255,3.9256,3.9255,3.9254,3.9257,3.9257,3.9257,3.9257,0,3.9128,3.9132,3.9142,3.9152,3.916,3.9169,3.9178,3.9182,3.9193,3.92,3.9209,3.9215,3.9226,3.9235,3.9244,3.925,3.9254,3.9256,3.9256,3.9253,3.9249,3.9249,3.9253,3.9256,3.9256,3.9256,3.9256,3.9256,3.913,3.9136,3.9146,3.9156,3.9164,3.9171,3.9177,3.9185,3.9193,3.9203,3.9208,3.9216,3.9225,3.9237,3.9243,3.9248,3.925,3.9251,3.9251,3.925,3.9249,3.9248,3.925,3.925,3.925,3.925,3.925,0,3.9134,3.9141,3.915,3.9161,3.9168,3.9172,3.9181,3.9186,3.9194,3.9201,3.9209,3.9217,3.9225,3.9233,3.924,3.9243,3.9245,3.9244,3.9244,3.9245,3.9248,3.9246,3.9242,3.9242,3.9242,3.9242,3.9242,3.9242,3.9138,3.9147,3.9152,3.9164,3.917,3.9179,3.9183,3.9189,3.9195,3.9204,3.921,3.9216,3.9223,3.923,3.9236,3.9238,3.924,3.9239,3.9241,3.9244,3.9245,3.9245,3.9244,3.9239,3.9239,3.9237,3.9237,3.9237]}]]